Data for 11/12/2014

Time Sea-Level Adjusted Pressure Absolute Pressure Temperature Relative Humidity Dew Point   
(mb) (inHg) (mb) (inHg) (C) (F) (%) (C) (F)
00:05 1030 30.42 860 25.4 -17.6 0.4 76 -20.9 -5.5
00:10 1030 30.42 860 25.4 -17.9 -0.2 76 -21.2 -6.1
00:15 1030 30.42 860 25.4 -18.1 -0.5 76 -21.3 -6.3
00:20 1030 30.42 860 25.4 -18.2 -0.7 78 -21.2 -6.1
00:25 1030 30.42 860 25.4 -18.3 -0.9 78 -21.2 -6.2
00:30 1030 30.42 860 25.4 -18.3 -1 79 -21.2 -6.2
00:35 1030 30.42 860 25.4 -18.2 -0.8 77 -21.3 -6.3
00:40 1030 30.42 860 25.4 -18.5 -1.4 78 -21.5 -6.8
00:45 1030 30.42 860 25.4 -18.7 -1.6 78 -21.7 -7
00:50 1030 30.42 860 25.4 -18.8 -1.8 78 -21.8 -7.2
00:55 1030 30.42 860 25.4 -18.8 -1.8 78 -21.8 -7.2
01:00 1030 30.42 860 25.4 -18.8 -1.8 77 -21.9 -7.4
01:05 1030 30.42 860 25.4 -18.8 -1.8 78 -21.7 -7.1
01:10 1030 30.42 860 25.4 -18.8 -1.8 78 -21.7 -7.1
01:15 1030 30.42 860 25.4 -18.7 -1.7 77 -21.8 -7.2
01:20 1030 30.42 859 25.37 -18.7 -1.6 77 -21.8 -7.2
01:25 1030 30.42 859 25.37 -18.8 -1.8 78 -21.7 -7.1
01:30 1030 30.42 859 25.37 -18.9 -2 79 -21.7 -7
01:35 1030 30.42 859 25.37 -18.9 -2 80 -21.6 -6.9
01:40 1030 30.42 859 25.37 -19 -2.1 79 -21.7 -7.1
01:45 1030 30.42 859 25.37 -19 -2.3 79 -21.8 -7.2
01:50 1030 30.42 860 25.4 -19 -2.2 79 -21.7 -7.1
01:55 1030 30.42 860 25.4 -18.9 -2 79 -21.7 -7
02:00 1030 30.42 860 25.4 -19 -2.1 80 -21.7 -7
02:05 1030 30.42 860 25.4 -19 -2.2 80 -21.6 -6.9
02:10 1030 30.42 860 25.4 -19 -2.2 81 -21.5 -6.7
02:15 1030 30.42 859 25.37 -19 -2.1 80 -21.6 -7
02:20 1030 30.42 859 25.37 -19 -2.1 79 -21.7 -7
02:25 1030 30.42 859 25.37 -19 -2.1 79 -21.7 -7
02:30 1030 30.42 859 25.37 -19 -2.1 78 -21.8 -7.3
02:35 1030 30.42 859 25.37 -19 -2.1 77 -22 -7.7
02:40 1030 30.42 860 25.4 -19 -2.2 77 -22.1 -7.8
02:45 1030 30.42 859 25.37 -19.2 -2.5 77 -22.2 -7.9
02:50 1030 30.42 859 25.37 -19.3 -2.7 78 -22.2 -7.9
02:55 1030 30.42 859 25.37 -19.4 -2.8 79 -22.2 -7.9
03:00 1030 30.42 860 25.4 -19.4 -2.9 79 -22.2 -7.9
03:05 1030 30.42 860 25.4 -19.3 -2.8 78 -22.3 -8.1
03:10 1030 30.42 860 25.4 -19.3 -2.8 78 -22.3 -8.1
03:15 1030 30.42 860 25.4 -19.4 -3 79 -22.3 -8.1
03:20 1030 30.42 860 25.4 -19.6 -3.2 79 -22.4 -8.2
03:25 1030 30.42 859 25.37 -19.6 -3.3 79 -22.4 -8.2
03:30 1030 30.42 859 25.37 -19.6 -3.2 79 -22.4 -8.3
03:35 1030 30.42 859 25.37 -19.5 -3.2 78 -22.4 -8.3
03:40 1030 30.42 859 25.37 -19.5 -3.2 78 -22.5 -8.4
03:45 1030 30.42 859 25.37 -19.6 -3.2 77 -22.6 -8.6
03:50 1030 30.42 859 25.37 -19.7 -3.4 78 -22.6 -8.6
03:55 1030 30.42 859 25.37 -19.8 -3.6 78 -22.7 -8.8
04:00 1030 30.42 860 25.4 -19.8 -3.7 79 -22.6 -8.6
04:05 1030 30.42 860 25.4 -19.8 -3.6 80 -22.4 -8.3
04:10 1030 30.42 860 25.4 -20 -3.9 80 -22.6 -8.6
04:15 1030 30.42 860 25.4 -20.3 -4.6 80 -22.9 -9.3
04:20 1030 30.42 860 25.4 -20.6 -5.1 79 -23.4 -10.1
04:25 1030 30.42 860 25.4 -20.7 -5.2 79 -23.4 -10.1
04:30 1030 30.42 860 25.4 -20.3 -4.6 77 -23.3 -10
04:35 1030 30.42 860 25.4 -20.4 -4.8 75 -23.8 -10.8
04:40 1030 30.42 859 25.37 -20.7 -5.3 75 -24 -11.2
04:45 1030 30.42 859 25.37 -20.5 -4.9 73 -24.2 -11.5
04:50 1030 30.42 860 25.4 -20.8 -5.4 74 -24.3 -11.8
04:55 1030 30.42 859 25.37 -20.4 -4.8 72 -24.3 -11.7
05:00 1030 30.42 859 25.37 -20.9 -5.6 73 -24.5 -12.1
05:05 1030 30.42 859 25.37 -21.1 -5.9 74 -24.5 -12.1
05:10 1030 30.42 859 25.37 -21.1 -6 74 -24.6 -12.3
05:15 1030 30.42 859 25.37 -21.1 -6 73 -24.8 -12.6
05:20 1030 30.42 859 25.37 -21.2 -6.2 73 -24.8 -12.7
05:25 1030 30.42 859 25.37 -21.6 -6.8 74 -25.1 -13.1
05:30 1030 30.42 859 25.37 -21.6 -6.8 73 -25.1 -13.2
05:35 1030 30.42 859 25.37 -21.3 -6.4 72 -25.1 -13.1
05:40 1030 30.42 859 25.37 -21.2 -6.1 73 -24.8 -12.6
05:45 1030 30.42 859 25.37 -21.2 -6.1 73 -24.9 -12.8
05:50 1030 30.42 859 25.37 -21.2 -6.1 72 -24.9 -12.9
05:55 1030 30.42 859 25.37 -21.3 -6.3 73 -25 -12.9
06:00 1030 30.42 859 25.37 -21.5 -6.7 73 -25.1 -13.3
06:05 1030 30.42 859 25.37 -21.7 -7 73 -25.3 -13.5
06:10 1030 30.42 859 25.37 -21.7 -7 73 -25.3 -13.6
06:15 1030 30.42 859 25.37 -21.6 -6.9 73 -25.3 -13.5
06:20 1030 30.42 859 25.37 -21.6 -6.8 73 -25.2 -13.4
06:25 1030 30.42 859 25.37 -21.7 -7 74 -25.2 -13.3
06:30 1030 30.42 859 25.37 -21.6 -6.9 73 -25.3 -13.5
06:35 1030 30.42 859 25.37 -21.4 -6.6 72 -25.3 -13.5
06:40 1030 30.42 859 25.37 -21.3 -6.4 71 -25.2 -13.4
06:45 1030 30.42 859 25.37 -21.4 -6.6 71 -25.4 -13.7
06:50 1030 30.42 859 25.37 -21.4 -6.6 71 -25.4 -13.7
06:55 1030 30.42 859 25.37 -21.6 -6.8 72 -25.4 -13.6
07:00 1030 30.42 859 25.37 -21.7 -7.1 73 -25.4 -13.7
07:05 1030 30.42 859 25.37 -21.8 -7.2 72 -25.6 -14
07:10 1030 30.42 859 25.37 -21.9 -7.4 73 -25.5 -14
07:15 1030 30.42 859 25.37 -22 -7.5 73 -25.5 -14
07:20 1030 30.42 859 25.37 -21.9 -7.5 73 -25.6 -14
07:25 1030 30.42 859 25.37 -21.9 -7.4 73 -25.4 -13.8
07:30 1030 30.42 859 25.37 -21.8 -7.2 73 -25.4 -13.7
07:35 1030 30.42 859 25.37 -21.8 -7.2 73 -25.4 -13.8
07:40 1030 30.42 859 25.37 -21.7 -7 73 -25.4 -13.7
07:45 1030 30.42 859 25.37 -21.5 -6.7 73 -25.1 -13.3
07:50 1030 30.42 859 25.37 -20.9 -5.5 71 -24.9 -12.8
07:55 1030 30.42 859 25.37 -20.6 -5.1 70 -24.8 -12.6
08:00 1030 30.42 859 25.37 -20.2 -4.3 68 -24.7 -12.5
08:05 1030 30.42 859 25.37 -19.7 -3.5 67 -24.5 -12
08:10 1030 30.42 859 25.37 -19.2 -2.6 65 -24.2 -11.6
08:15 1030 30.42 859 25.37 -19.3 -2.8 65 -24.4 -11.9
08:20 1030 30.42 860 25.4 -19.4 -2.9 64 -24.5 -12.2
08:25 1030 30.42 860 25.4 -19.4 -3 63 -24.7 -12.5
08:30 1030 30.42 860 25.4 -19.4 -2.9 60 -25.3 -13.5
08:35 1030 30.42 860 25.4 -19.9 -3.7 64 -25 -13
08:40 1030 30.42 860 25.4 -20.2 -4.4 65 -25.2 -13.4
08:45 1030 30.42 860 25.4 -19.9 -3.7 62 -25.4 -13.7
08:50 1030 30.42 860 25.4 -19.9 -3.9 65 -25 -12.9
08:55 1030 30.42 860 25.4 -19.5 -3.1 63 -24.9 -12.9
09:00 1030 30.42 860 25.4 -19.5 -3 63 -24.7 -12.5
09:05 1030 30.42 860 25.4 -18.8 -1.8 62 -24.4 -12
09:10 1030 30.42 860 25.4 -18.4 -1.1 61 -24.1 -11.4
09:15 1030 30.42 860 25.4 -18 -0.4 58 -24.4 -11.9
09:20 1030 30.42 860 25.4 -18.6 -1.4 62 -24.1 -11.4
09:25 1030 30.42 859 25.37 -18.5 -1.3 62 -24 -11.2
09:30 1030 30.42 859 25.37 -18 -0.5 58 -24.4 -11.9
09:35 1030 30.42 859 25.37 -18.1 -0.7 60 -24.1 -11.4
09:40 1030 30.42 859 25.37 -18.2 -0.8 59 -24.4 -11.9
09:45 1030 30.42 859 25.37 -18.3 -0.9 61 -24 -11.2
09:50 1030 30.42 859 25.37 -17.8 -0.1 60 -23.8 -10.8
09:55 1030 30.42 859 25.37 -16.8 1.8 56 -23.6 -10.4
10:00 1030 30.42 859 25.37 -16.7 1.9 57 -23.5 -10.2
10:05 1030 30.42 859 25.37 -16.8 1.8 54 -24 -11.3
10:10 1030 30.42 859 25.37 -16.6 2.1 56 -23.4 -10.1
10:15 1030 30.42 859 25.37 -16.3 2.7 55 -23.4 -10.2
10:20 1030 30.42 859 25.37 -16.3 2.7 54 -23.6 -10.4
10:25 1030 30.42 859 25.37 -16.3 2.8 52 -24 -11.3
10:30 1030 30.42 859 25.37 -16.4 2.4 51 -24.3 -11.7
10:35 1030 30.42 859 25.37 -16 3.3 50 -24.1 -11.3
10:40 1030 30.42 859 25.37 -15.6 4 53 -23 -9.4
10:45 1030 30.42 859 25.37 -16 3.3 55 -23.1 -9.6
10:50 1030 30.42 859 25.37 -15.3 4.5 51 -23.3 -9.9
10:55 1030 30.42 859 25.37 -15 5 52 -22.9 -9.3
11:00 1030 30.42 859 25.37 -15.4 4.2 53 -23.1 -9.6
11:05 1030 30.42 859 25.37 -15.8 3.6 54 -23.1 -9.6
11:10 1030 30.42 859 25.37 -15.4 4.3 53 -22.9 -9.2
11:15 1030 30.42 859 25.37 -15.1 4.8 51 -23.1 -9.5
11:20 1030 30.42 859 25.37 -15.1 4.8 53 -22.8 -9
11:25 1030 30.42 859 25.37 -15.5 4.2 57 -22.3 -8.1
11:30 1030 30.42 859 25.37 -14.7 5.5 54 -22 -7.6
11:35 1030 30.42 859 25.37 -14.1 6.6 53 -21.8 -7.3
11:40 1030 30.42 859 25.37 -14.1 6.5 55 -21.3 -6.3
11:45 1030 30.42 859 25.37 -14.4 6.1 56 -21.4 -6.5
11:50 1029 30.39 859 25.37 -14.1 6.6 52 -22 -7.6
11:55 1029 30.39 859 25.37 -14.2 6.4 54 -21.6 -6.9
12:00 1029 30.39 859 25.37 -14 6.9 53 -21.5 -6.7
12:05 1029 30.39 859 25.37 -13.9 7.1 53 -21.4 -6.5
12:10 1029 30.39 859 25.37 -13.7 7.4 54 -21.1 -6
12:15 1029 30.39 858 25.34 -13.5 7.8 53 -21.1 -5.9
12:20 1029 30.39 858 25.34 -13.8 7.3 55 -21 -5.9
12:25 1029 30.39 858 25.34 -13.4 7.8 52 -21.3 -6.3
12:30 1029 30.39 858 25.34 -14.5 6 58 -21 -5.8
12:35 1029 30.39 858 25.34 -14.4 6.2 56 -21.3 -6.3
12:40 1029 30.39 858 25.34 -14.3 6.2 55 -21.4 -6.6
12:45 1029 30.39 858 25.34 -13.3 8.1 52 -21.1 -6
12:50 1029 30.39 858 25.34 -14.1 6.6 55 -21.3 -6.4
12:55 1029 30.39 858 25.34 -15.5 4.2 61 -21.4 -6.6
13:00 1029 30.39 858 25.34 -14.8 5.4 55 -22 -7.6
13:05 1029 30.39 858 25.34 -13.4 7.9 51 -21.6 -6.9
13:10 1029 30.39 858 25.34 -12.8 8.9 50 -21.3 -6.3
13:15 1029 30.39 858 25.34 -14.1 6.7 56 -21.2 -6.1
13:20 1029 30.39 858 25.34 -15.1 4.7 59 -21.4 -6.6
13:25 1029 30.39 858 25.34 -14.5 6 55 -21.7 -7.1
13:30 1029 30.39 858 25.34 -13.3 8.1 53 -21.1 -5.9
13:35 1029 30.39 858 25.34 -14 6.7 54 -21.4 -6.4
13:40 1028 30.36 858 25.34 -13.5 7.7 51 -21.6 -6.9
13:45 1028 30.36 858 25.34 -13.3 8.1 52 -21.1 -6
13:50 1028 30.36 858 25.34 -12.7 9.2 50 -21.1 -6
13:55 1028 30.36 858 25.34 -13.1 8.4 52 -21.1 -6
14:00 1028 30.36 858 25.34 -13 8.7 50 -21.4 -6.5
14:05 1028 30.36 858 25.34 -13.4 7.8 52 -21.4 -6.5
14:10 1028 30.36 858 25.34 -13.3 8.1 55 -20.5 -5
14:15 1028 30.36 858 25.34 -14.1 6.7 57 -20.8 -5.4
14:20 1028 30.36 857 25.31 -13.2 8.2 51 -21.3 -6.3
14:25 1028 30.36 857 25.31 -12.5 9.5 49 -21.1 -5.9
14:30 1028 30.36 857 25.31 -13.3 8.1 48 -22 -7.7
14:35 1028 30.36 857 25.31 -13.8 7.1 53 -21.6 -6.9
14:40 1028 30.36 857 25.31 -13.7 7.4 52 -21.5 -6.7
14:45 1028 30.36 857 25.31 -14.5 5.8 55 -21.7 -7
14:50 1028 30.36 857 25.31 -13.4 7.9 52 -21.4 -6.5
14:55 1028 30.36 857 25.31 -13.1 8.4 52 -21 -5.8
15:00 1028 30.36 857 25.31 -13.4 7.9 51 -21.4 -6.5
15:05 1028 30.36 857 25.31 -12.9 8.7 51 -21 -5.8
15:10 1028 30.36 857 25.31 -13.1 8.4 50 -21.4 -6.6
15:15 1028 30.36 857 25.31 -13.1 8.5 50 -21.5 -6.6
15:20 1028 30.36 857 25.31 -13.4 7.8 52 -21.3 -6.3
15:25 1028 30.36 857 25.31 -14.7 5.6 57 -21.5 -6.8
15:30 1028 30.36 857 25.31 -14.7 5.6 55 -21.9 -7.4
15:35 1028 30.36 857 25.31 -15 5 57 -21.7 -7
15:40 1028 30.36 857 25.31 -14.4 6.1 55 -21.5 -6.8
15:45 1028 30.36 857 25.31 -14 6.8 54 -21.5 -6.6
15:50 1028 30.36 857 25.31 -13.6 7.6 53 -21.2 -6.1
15:55 1028 30.36 857 25.31 -13.7 7.4 53 -21.3 -6.3
16:00 1028 30.36 857 25.31 -13.7 7.3 53 -21.4 -6.5
16:05 1028 30.36 857 25.31 -13.9 6.9 55 -21.2 -6.2
16:10 1028 30.36 857 25.31 -14 6.8 56 -21.1 -5.9
16:15 1028 30.36 857 25.31 -14.1 6.7 55 -21.3 -6.3
16:20 1028 30.36 857 25.31 -14.1 6.6 55 -21.2 -6.2
16:25 1028 30.36 857 25.31 -14.5 5.9 56 -21.5 -6.7
16:30 1028 30.36 857 25.31 -14.7 5.5 58 -21.4 -6.5
16:35 1028 30.36 857 25.31 -14.8 5.3 56 -21.7 -7.1
16:40 1028 30.36 857 25.31 -15.4 4.3 59 -21.8 -7.2
16:45 1028 30.36 857 25.31 -16.2 2.8 60 -22.2 -8
16:50 1028 30.36 857 25.31 -16.1 3 60 -22.1 -7.8
16:55 1028 30.36 857 25.31 -16.7 2 60 -22.7 -8.8
17:00 1028 30.36 857 25.31 -16.8 1.8 61 -22.6 -8.6
17:05 1028 30.36 857 25.31 -17.1 1.2 63 -22.5 -8.5
17:10 1028 30.36 857 25.31 -17.2 1.1 63 -22.6 -8.7
17:15 1028 30.36 857 25.31 -17.4 0.7 64 -22.7 -8.8
17:20 1028 30.36 857 25.31 -17.5 0.4 65 -22.6 -8.6
17:25 1028 30.36 857 25.31 -17.6 0.2 66 -22.6 -8.7
17:30 1028 30.36 857 25.31 -17.9 -0.2 67 -22.6 -8.7
17:35 1028 30.36 857 25.31 -17.9 -0.2 67 -22.7 -8.9
17:40 1028 30.36 857 25.31 -18 -0.5 68 -22.6 -8.7
17:45 1028 30.36 857 25.31 -18.1 -0.7 68 -22.7 -8.8
17:50 1028 30.36 857 25.31 -18.2 -0.8 68 -22.7 -8.9
17:55 1028 30.36 857 25.31 -18.3 -0.9 68 -22.7 -8.9
18:00 1028 30.36 857 25.31 -18.3 -0.9 69 -22.7 -8.9
18:05 1028 30.36 857 25.31 -18.3 -1 69 -22.7 -8.8
18:10 1028 30.36 857 25.31 -18.4 -1.2 70 -22.6 -8.8
18:15 1028 30.36 857 25.31 -18.4 -1.1 70 -22.6 -8.7
18:20 1028 30.36 857 25.31 -18.4 -1 70 -22.6 -8.7
18:25 1028 30.36 857 25.31 -18.4 -1.1 70 -22.6 -8.7
18:30 1028 30.36 857 25.31 -18.5 -1.3 70 -22.7 -8.9
18:35 1028 30.36 857 25.31 -18.5 -1.2 70 -22.7 -8.9
18:40 1028 30.36 857 25.31 -18.4 -1.2 70 -22.7 -8.9
18:45 1028 30.36 857 25.31 -18.5 -1.2 70 -22.7 -8.9
18:50 1028 30.36 857 25.31 -18.6 -1.5 71 -22.7 -8.8
18:55 1028 30.36 857 25.31 -18.6 -1.5 71 -22.7 -8.8
19:00 1028 30.36 857 25.31 -18.7 -1.7 71 -22.7 -8.9
19:05 1028 30.36 857 25.31 -18.8 -1.9 72 -22.8 -9
19:10 1028 30.36 857 25.31 -18.9 -2.1 72 -22.9 -9.1
19:15 1028 30.36 857 25.31 -19.4 -2.8 73 -23.1 -9.5
19:20 1028 30.36 857 25.31 -19.4 -2.8 73 -23.1 -9.6
19:25 1028 30.36 857 25.31 -19.5 -3.1 73 -23.1 -9.6
19:30 1028 30.36 857 25.31 -19.4 -2.9 73 -23 -9.5
19:35 1027 30.33 857 25.31 -19.3 -2.7 73 -22.9 -9.3
19:40 1027 30.33 857 25.31 -19.2 -2.6 73 -22.9 -9.1
19:45 1027 30.33 857 25.31 -19.2 -2.5 73 -22.9 -9.2
19:50 1027 30.33 857 25.31 -19.2 -2.5 73 -22.9 -9.2
19:55 1027 30.33 857 25.31 -19.4 -2.9 73 -23.1 -9.6
20:00 1027 30.33 857 25.31 -19.5 -3.2 73 -23.2 -9.7
20:05 1027 30.33 857 25.31 -19.6 -3.2 73 -23.2 -9.7
20:10 1027 30.33 857 25.31 -19.6 -3.3 73 -23.3 -9.9
20:15 1027 30.33 857 25.31 -19.7 -3.5 74 -23.3 -10
20:20 1027 30.33 857 25.31 -19.8 -3.7 73 -23.5 -10.2
20:25 1027 30.33 857 25.31 -19.8 -3.6 73 -23.5 -10.3
20:30 1027 30.33 857 25.31 -19.9 -3.8 73 -23.6 -10.5
20:35 1027 30.33 857 25.31 -20.1 -4.1 73 -23.8 -10.8
20:40 1027 30.33 857 25.31 -20.3 -4.5 73 -23.9 -11
20:45 1027 30.33 857 25.31 -20.2 -4.4 73 -23.9 -11
20:50 1027 30.33 857 25.31 -20.3 -4.6 74 -23.9 -10.9
20:55 1027 30.33 857 25.31 -20.2 -4.4 74 -23.8 -10.9
21:00 1027 30.33 857 25.31 -20 -4 73 -23.7 -10.6
21:05 1027 30.33 857 25.31 -20 -3.9 73 -23.7 -10.6
21:10 1027 30.33 857 25.31 -19.8 -3.6 72 -23.7 -10.6
21:15 1027 30.33 857 25.31 -19.8 -3.7 71 -23.8 -10.8
21:20 1027 30.33 857 25.31 -20 -4.1 72 -23.9 -11
21:25 1027 30.33 857 25.31 -20.2 -4.4 72 -24 -11.2
21:30 1027 30.33 857 25.31 -20.5 -4.9 73 -24.1 -11.4
21:35 1027 30.33 857 25.31 -20.5 -4.9 73 -24.2 -11.6
21:40 1027 30.33 856 25.28 -20.4 -4.6 72 -24.1 -11.5
21:45 1027 30.33 856 25.28 -20.4 -4.7 72 -24.2 -11.5
21:50 1027 30.33 856 25.28 -20.5 -4.8 72 -24.2 -11.6
21:55 1027 30.33 856 25.28 -20.4 -4.8 72 -24.2 -11.6
22:00 1027 30.33 856 25.28 -20.5 -4.8 72 -24.3 -11.7
22:05 1027 30.33 856 25.28 -20.4 -4.6 72 -24.2 -11.5
22:10 1027 30.33 856 25.28 -20.3 -4.6 72 -24.1 -11.4
22:15 1027 30.33 856 25.28 -20.3 -4.6 72 -24.1 -11.4
22:20 1027 30.33 856 25.28 -20.1 -4.3 71 -24.1 -11.5
22:25 1027 30.33 856 25.28 -20.3 -4.5 71 -24.3 -11.8
22:30 1027 30.33 856 25.28 -20.4 -4.8 72 -24.3 -11.8
22:35 1027 30.33 856 25.28 -20.4 -4.8 71 -24.3 -11.8
22:40 1027 30.33 856 25.28 -20.4 -4.6 71 -24.4 -11.9
22:45 1027 30.33 856 25.28 -20.3 -4.6 71 -24.4 -11.9
22:50 1027 30.33 856 25.28 -20.3 -4.6 71 -24.3 -11.8
22:55 1027 30.33 856 25.28 -20.3 -4.6 71 -24.4 -11.9
23:00 1027 30.33 856 25.28 -20.4 -4.7 70 -24.5 -12.1
23:05 1027 30.33 856 25.28 -20.4 -4.7 69 -24.7 -12.4
23:10 1027 30.33 856 25.28 -20.4 -4.8 70 -24.6 -12.3
23:15 1027 30.33 856 25.28 -20.3 -4.6 69 -24.6 -12.3
23:20 1027 30.33 856 25.28 -20.4 -4.6 69 -24.7 -12.4
23:25 1027 30.33 856 25.28 -20.2 -4.4 69 -24.5 -12.2
23:30 1027 30.33 856 25.28 -20.3 -4.5 70 -24.4 -11.9
23:35 1027 30.33 856 25.28 -20.3 -4.6 70 -24.5 -12
23:40 1027 30.33 856 25.28 -20.4 -4.6 70 -24.4 -12
23:45 1026 30.3 856 25.28 -20.4 -4.7 71 -24.4 -11.9
23:50 1026 30.3 856 25.28 -20.3 -4.6 70 -24.4 -11.9
23:55 1027 30.33 856 25.28 -20.3 -4.5 71 -24.3 -11.8
24:00 1027 30.33 856 25.28 -20.2 -4.3 70 -24.4 -11.9